IRIDIUM 39

Satellite information

Favourite Embed

Satellite Type and Status

PAYLOADIN ORBIT

Key statistics

Satellite IRIDIUM 39 at a glance.

Uptime

10157

Days in orbit

Revolutions

≈ 14.5

Per day

Orbit

LEO

Low Earth Orbit

Inclination

86.4

Latest

Satellite identification and parameters

Extended collection of information and parameters for IRIDIUM 39.

Object identification

Identified? True

Debris? False

Object name: IRIDIUM 39

International designator: 1997-069D

Object number (NORAD): 25042

Object ID (CCSDS): 25042

Country: UNITED STATES OF AMERICA (US)

Current information (Y/N): Y

RCS size: LARGE

Orbital parameters

Period: 99.358 minutes

Inclination: 86.398 deg

SMA: 7106.073 km

Apoapsis: 742.09 km

Periapsis: 713.786 km

RAAN: 179.1221 deg

Eccentricy: 0.00199158

Argument of periapsis: 60.5955 deg

Mean anomaly: 299.7234 deg

Mean motion: 14.49299862 rev/day

Mean motion (dot): 0.00001072 rev/day2

B* drag term: 0.00027489427 1/REarth

Two-line elements (TLE)

Creation date: Aug. 31, 2025, 2:26 a.m.

Reference frame: TEME

Reference center: EARTH

Epoch: Aug. 30, 2025, 9:43 p.m. UTC

TLE line 0: 0 IRIDIUM 39

TLE line 1: 1 25042U 97069D 25242.90489450 .00001072 00000-0 27489-3 0 9991

TLE line 2: 2 25042 86.3980 179.1221 0019916 60.5955 299.7234 14.49299862459781

Live tracking on map

Real-time ground track for satellite IRIDIUM 39.

In-orbit conjunctions

There are no conjunctions computed for IRIDIUM 39, at the moment. Check back to stay up to date, as we update our databases every day.

Go to all conjunctions

Associated space launch

Iridium provides global mobile telecommunications services using a constellation of 66 low earth orbit satellites in a 86.4° inclined orbit. Although 77 satellites were originally envisioned for the system and spawned the name based on the 77th element in the periodic table, the system has been scaled back. Motorola's Satellite Communications Group designed and manufactured the Iridium satellites with Lockheed Martin providing the LM-700A spacecraft buses.

IRIDIUM 39 was lifted into orbit during the mission ‘Delta II | Iridium 38 to 43’, on board a Delta II space rocket.

The launch took place on Nov. 9, 1997, 1:34 a.m. from Space Launch Complex 2W.

For more information about the launch, click the button.

Launch to space Delta II | Iridium 38 to 43
Delta II | Iridium 38 to 43

Agency: N/A

Status: Launch Successful

Launch date: Nov. 9, 1997, 1:34 a.m. UTC

Rocket: Delta II

Launch pad: Space Launch Complex 2W

Location: Vandenberg SFB, CA, USA

...

Latest news about this satellite

There are no fresh news available about this satellite. Check back as we update our databases every day.


Newsletter sign-up

Weekly statistics, charts and insights to help you stay on top of the space industry.